Weather History for West Plains, MO

Change the Weather History Date:

Saturday, January 5, 2013

  Actual Average Record
Temperature  
Mean Temperature 35 °F 34 °F  
Max Temperature 43 °F 44 °F 73 °F (1997)
Min Temperature 26 °F 23 °F -3 °F (1959)
Degree Days  
Heating Degree Days 30 31  
Month to date heating degree days 173 155  
Since 1 July heating degree days 1841 1900  
Cooling Degree Days 0 0  
Month to date cooling degree days 0 0  
Year to date cooling degree days 0 0  
Moisture  
Dew Point 25 °F    
Average Humidity 60    
Maximum Humidity 75    
Minimum Humidity 45    
Precipitation  
Precipitation T in 0.07 in 1.30 in (1993)
Month to date precipitation 0.01 0.34  
Year to date precipitation 0.01 0.34  
Sea Level Pressure  
Sea Level Pressure 30.27 in    
Wind  
Wind Speed 5 mph (SW)    
Max Wind Speed 13 mph    
Max Gust Speed -    
Visibility 10 miles    
Events      
T = Trace of Precipitation, MM = Missing Value Source: NWS Daily Summary

Daily Weather History Graph

Daily Weather History Graph

Search for Another Location

Airport:

Trip Planner

Search our weather history database for the weather conditions in past years. The results will help you decide how hot, cold, wet, or windy it might be!

Date:

Astronomy

Jan. 05, 2013 Rise Set
Actual Time 7:21 AM CST 5:05 PM CST
Civil Twilight 6:52 AM CST 5:34 PM CST
Nautical Twilight 6:20 AM CST 6:06 PM CST
Astronomical Twilight 5:48 AM CST 6:38 PM CST
Moon 12:33 AM CST (1/5) 11:51 AM CST (1/5)
Length of Visible Light 10h 42m
Length of Day
9h 44m
Last Quarter, 44% of the Moon is Illuminated
Jan 5
Last Quarter
Jan 11
New
Jan 18
First Quarter
Jan 26
Full
Feb 3
Last Quarter

Hourly Weather History & Observations

Time (CST) Temp. Windchill Dew Point Humidity Pressure Visibility Wind Dir Wind Speed Gust Speed Precip Events Conditions
12:53 AM 26.1 °F - 19.0 °F 75% 30.34 in 10.0 mi Calm Calm - N/A   Clear
1:53 AM 28.9 °F 25.2 °F 19.9 °F 69% 30.35 in 10.0 mi SW 3.5 mph - N/A   Clear
2:53 AM 28.0 °F 24.2 °F 19.9 °F 72% 30.33 in 10.0 mi SW 3.5 mph - N/A   Clear
3:53 AM 28.9 °F - 21.9 °F 75% 30.32 in 10.0 mi Calm Calm - N/A   Partly Cloudy
4:53 AM 30.0 °F 26.5 °F 21.9 °F 72% 30.34 in 10.0 mi SSW 3.5 mph - N/A   Mostly Cloudy
5:53 AM 30.9 °F 27.5 °F 23.0 °F 72% 30.33 in 10.0 mi SW 3.5 mph - N/A   Overcast
6:53 AM 32.0 °F 26.4 °F 24.1 °F 73% 30.34 in 10.0 mi WSW 5.8 mph - N/A   Overcast
7:53 AM 33.1 °F 28.7 °F 24.1 °F 70% 30.35 in 10.0 mi WSW 4.6 mph - 0.00 in   Overcast
8:53 AM 35.1 °F 32.2 °F 25.0 °F 67% 30.35 in 10.0 mi SW 3.5 mph - N/A   Overcast
9:53 AM 37.9 °F 34.4 °F 25.0 °F 60% 30.35 in 10.0 mi SSW 4.6 mph - N/A   Mostly Cloudy
10:53 AM 42.1 °F 37.7 °F 23.0 °F 47% 30.31 in 10.0 mi SSW 6.9 mph - N/A   Scattered Clouds
11:53 AM 43.0 °F 36.8 °F 24.1 °F 47% 30.27 in 10.0 mi WSW 11.5 mph - N/A   Overcast
12:53 PM 43.0 °F 37.2 °F 23.0 °F 45% 30.23 in 10.0 mi SW 10.4 mph - N/A   Overcast
1:53 PM 43.0 °F 38.8 °F 24.1 °F 47% 30.21 in 10.0 mi SW 6.9 mph - N/A   Overcast
2:53 PM 43.0 °F 37.7 °F 26.1 °F 51% 30.20 in 10.0 mi SSW 9.2 mph - N/A   Overcast
3:53 PM 43.0 °F - 27.0 °F 53% 30.21 in 10.0 mi Calm Calm - N/A   Overcast
4:53 PM 42.1 °F - 28.0 °F 58% 30.21 in 10.0 mi Calm Calm - N/A   Overcast
5:53 PM 37.9 °F 35.5 °F 27.0 °F 65% 30.22 in 10.0 mi SW 3.5 mph - N/A   Overcast
6:53 PM 39.0 °F 35.7 °F 28.0 °F 65% 30.24 in 10.0 mi West 4.6 mph - N/A   Overcast
7:53 PM 39.9 °F 35.1 °F 28.9 °F 65% 30.23 in 10.0 mi WSW 6.9 mph - N/A   Overcast
8:53 PM 39.9 °F 35.1 °F 28.9 °F 65% 30.22 in 10.0 mi SW 6.9 mph - N/A   Overcast
9:53 PM 37.9 °F 32.7 °F 28.9 °F 70% 30.22 in 10.0 mi WSW 6.9 mph - N/A   Mostly Cloudy
10:53 PM 39.0 °F 34.8 °F 28.9 °F 67% 30.22 in 10.0 mi WSW 5.8 mph - N/A   Overcast
11:53 PM 36.0 °F 31.1 °F 28.9 °F 76% 30.21 in 10.0 mi WSW 5.8 mph - N/A   Clear